OpenBCM V2.0.3 (Linux)

Packet Radio Mailbox

IZ3LSV

[San Dona' di P. JN]

 Login: GUEST





  
I0OJJ  > AMSAT    05.09.26 04:00l 325 Lines 15341 Bytes #999 (0) @ WW
BID : 5GV_IR0EQ
Read: GUEST
Subj: 2Line Orbital Elements
Path: IZ3LSV<IW0QNL<SR1BSZ<EA2RCF<IR0EQ
Sent: 260905/0025z @:IR0EQ.ITA.EU [Rome] $:5GV_IR0EQ

>From i0ojj@rgate.ampr.org Sat Sep  5 02:25:56 2026
Received: from rgate.ampr.org by rgate.ampr.org (JNOS2.0q.1) with SMTP
	id AA7087 ; Sat, 05 Sep 2026 02:25:56 +0200
Received: by rgate.ampr.org with SMTP
	id AA7084 ; Sat, 05 Sep 2026 02:25:50 +0200
Message-Id: <7085@rgate.ampr.org>
>From: i0ojj@rgate.ampr.org

SB KEPS @ AMSAT  $ORB26248.1
2Line Orbital Elements 26248.AMSAT

QST de W1STR

AMSAT Orbital Elements for Amateur Satellites in TLE Format
>From Orbital Analysis Office
New England Sci-Tech STEM Education Center
Natick MA September 05, 2026
To all radio amateurs


These element sets describe the orbits of various satellites 
in use by the amateur radio community. For details see:
www.amsat.org/keplerian-elements-formats/

A daily update of element sets is available at:
www.amsat.org/tle/daily-bulletin.txt
or without bulletin text:
www.amsat.org/tle/dailytle.txt


AO-07
1 07530U 74089B   26247.87413375 -.00000047  00000-0 -10054-5 0  9990
2 07530 101.9921 261.9541 0012134 340.9417 140.1978 12.53699385370503
UO-11
1 14781U 84021B   26247.61957244  .00000696  00000-0  76088-4 0  9999
2 14781  97.8150 212.3529 0006044 285.4269  74.6282 14.90968216268963
LO-19
1 20442U 90005G   26247.85719566  .00000021  00000-0  24405-4 0  9996
2 20442  98.8832 271.8499 0011053 337.6619  22.4082 14.34141783913813
AO-27
1 22825U 93061C   26247.43284105  .00000025  00000-0  26368-4 0  9992
2 22825  98.6811 314.7904 0007619 221.9481 138.1118 14.30959236718339
FO-29
1 24278U 96046B   26247.78871568 -.00000035  00000-0  27571-5 0  9995
2 24278  98.5179  85.7487 0348880 249.8087 106.5216 13.53277604483938
GO-32
1 25397U 98043D   26247.71956049  .00000021  00000-0  29389-4 0  9990
2 25397  99.0142 242.5099 0001542  31.9632 328.1639 14.24441238462658
ISS
1 25544U 98067A   26247.78883466  .00003383  00000-0  69578-4 0  9997
2 25544  51.6313 266.1160 0005046 107.1671 252.9870 15.48989366584099
NO-44
1 26931U 01043C   26247.85219060  .00000041  00000-0  46187-4 0  9996
2 26931  67.0511  38.2153 0005691 271.3451  88.6999 14.31980742301854
SO-50
1 27607U 02058C   26247.45171561  .00000498  00000-0  76553-4 0  9999
2 27607  64.5503 243.7133 0072586 247.9077 111.4311 14.83193270276212
CO-55
1 27844U 03031E   26247.48640235  .00000142  00000-0  80385-4 0  9990
2 27844  98.6770 255.0598 0008765 321.2746  38.7804 14.24376449202962
RS-22
1 27939U 03042A   26247.87308672  .00000399  00000-0  69500-4 0  9996
2 27939  98.3491  74.5039 0011834  21.8360  85.0065 14.73586674227287
CO-65
1 32785U 08021C   26247.78005814  .00002805  00000-0  17623-3 0  9997
2 32785  97.8361 230.9279 0010257 113.3722 246.8587 15.10086479997205
CO-66
1 32791U 08021J   26247.45545780  .00011934  00000-0  35108-3 0  9990
2 32791  97.7569 249.3099 0004082  61.8539 298.3115 15.35243240999442
RS-30
1 32953U 08025A   26247.85227105 -.00000016  00000-0 -18515-3 0  9990
2 32953  82.5041 305.8954 0020514 135.8907 224.3814 12.43182469829590
SRMSAT
1 37841U 11058D   26247.55170970  .00000352  00000-0  47043-4 0  9995
2 37841  19.9722 299.0883 0011805 358.2365 152.2976 14.11590334769040
ZACUBE-1
1 39417U 13066B   26247.84839163  .00003527  00000-0  27127-3 0  9992
2 39417  97.8094 210.5792 0040925 346.7483  13.2662 15.01720866692681
Delfi-N3xt
1 39428U 13066N   26247.73163102  .00004452  00000-0  38261-3 0  9994
2 39428  97.8289 167.9971 0071455 302.9174  56.5187 14.95988359686518
GOMX-1
1 39430U 13066Q   26247.78137572  .00001260  00000-0  19431-3 0  9996
2 39430  97.6449  83.2279 0127886 181.0528 179.0430 14.69664879681603
LO-74
1 39440U 13066AA  26247.83044576  .00001421  00000-0  13386-3 0  9996
2 39440  97.8965 197.1975 0058330 122.1723 238.5173 14.94214617688888
AO-73
1 39444U 13066AE  26247.37906640  .00003952  00000-0  24119-3 0  9995
2 39444  97.8364 220.5694 0033675 295.6273  64.1478 15.10477011691619
DTUSAT-2
1 40030U 14033W   26247.73436154  .00003579  00000-0  19068-3 0  9993
2 40030  98.0920 250.5884 0006831 336.1119  23.9794 15.15916612664738
LILACSAT-2
1 40908U 15049K   26247.86205384  .00011232  00000-0  17544-3 0  9990
2 40908  97.4582 287.8445 0005205 335.6289  24.4717 15.53968110608114
Lapan A3
1 41603U 16040E   26247.87333745  .00001826  00000-0  58533-4 0  9991
2 41603  97.1558 241.4523 0012146  89.9331 270.3304 15.33543242567020
CAS-2T
1 41847U 16066G   26247.46727223  .00000396  00000-0  65653-4 0  9994
2 41847  98.3765 322.2937 0340103 248.9056 107.5465 14.44825452516242
TechnoSat
1 42829U 17042E   26247.36041163  .00001706  00000-0  12287-3 0  9991
2 42829  97.4393  42.0759 0017504 177.8518 182.2787 15.05353571498611
AO-91
1 43017U 17073E   26247.89020917  .00004897  00000-0  20898-3 0  9998
2 43017  97.4583 113.4784 0149155  53.5724 307.9153 15.13765391477447
S-Net D
1 43186U 18014G   26247.68143394  .00002918  00000-0  14970-3 0  9999
2 43186  97.5260 151.9718 0009844 100.3246 259.9097 15.17303585470815
S-Net B
1 43187U 18014H   26247.69449884  .00002686  00000-0  13816-3 0  9994
2 43187  97.5267 151.9734 0010494  96.5655 263.6773 15.17271302470818
S-Net A
1 43188U 18014J   26247.67987821  .00002820  00000-0  14471-3 0  9999
2 43188  97.5277 152.1833 0010402  97.2589 262.9827 15.17311800470816
S-Net C
1 43189U 18014K   26247.69885847  .00002618  00000-0  13475-3 0  9995
2 43189  97.5294 152.2891 0011737  91.1015 269.1563 15.17261040469364
Ten-Koh
1 43677U 18084G   26247.80934786  .00001106  00000-0  86638-4 0  9997
2 43677  98.0756  83.5397 0008754 202.1059 157.9788 15.03218692428121
PO-101
1 43678U 18084H   26247.85420946  .00000952  00000-0  80318-4 0  9998
2 43678  98.1192  87.5698 0010863 262.9029  97.0959 15.00701697428167
QO-100
1 43700U 18090A   26247.81919744  .00000136  00000-0  00000+0 0  9995
2 43700   0.0113 207.2931 0002479 353.6523 103.6972  1.00269676 28470
MinXSS-2
1 43758U 18099A   26247.45250557  .00032155  00000-0  52552-3 0  9996
2 43758  97.4453 326.3537 0005279 336.9436  23.1579 15.52474150426404
AO-95
1 43770U 18099N   26247.14734666  .00006788  00000-0  24919-3 0  9993
2 43770  97.4306 307.1549 0009825  73.5305 286.7014 15.28227299425273
SNUSat 2
1 43782U 18099AA  26247.60143811  .00004230  00000-0  18313-3 0  9994
2 43782  97.3987 299.7922 0010476  26.5966 333.5806 15.22913766425114
SnugLite
1 43784U 18099AC  26247.38492963  .00005882  00000-0  21360-3 0  9996
2 43784  97.3795 300.9392 0003283  41.3421 318.8067 15.28677778425412
ITASat 1
1 43786U 18099AE  26247.11143000  .00003828  00000-0  18092-3 0  9990
2 43786  97.3956 297.0639 0013916  79.1929 281.0872 15.19915435424890
EAGLET 1
1 43790U 18099AJ  26247.60350030  .00002182  00000-0  12543-3 0  9999
2 43790  97.4161 295.1645 0012608  74.1922 286.0699 15.13451139424347
ESEO
1 43792U 18099AL  26247.86620251  .00000265  00000-0  23079-4 0  9991
2 43792  97.3913 281.8299 0013441  64.6447 295.6170 15.04440808423780
JO-97
1 43803U 18099AX  26246.72149691  .00011876  00000-0  34094-3 0  9990
2 43803  97.4046 309.9287 0004940   7.3493 352.7822 15.35992618425673
Suomi 100
1 43804U 18099AY  26247.44511311  .00007395  00000-0  25623-3 0  9992
2 43804  97.4107 307.6052 0009412   9.2590 350.8822 15.30094483425537
ISAT
1 43879U 18111D   26246.78352384  .00244986  00000-0  88785-3 0  9995
2 43879  97.5798 189.1593 0007033 114.4887 245.7119 15.87922249423535
UWE-4
1 43880U 18111E   26247.24582060  .00028782  00000-0  49602-3 0  9994
2 43880  97.5812 179.5585 0008850  53.7298 306.4769 15.50978455423016
Prox-1
1 44339U 19036A   26247.80584812  .00007106  00000-0  65131-3 0  9992
2 44339  23.9953 301.6865 0004954 234.1186 125.8854 14.92284240385377
Taurus 1
1 44530U 19059C   26247.81625635  .00003234  00000-0  51418-3 0  9991
2 44530  98.6496  57.6681 0009321  65.8261 294.3918 14.72809403370369
TO-108
1 44881U 19093C   26247.80726404  .00000042  00000-0  10783-4 0  9998
2 44881  97.7461 318.0751 0013346 178.9320 181.1927 14.86619495363243
RS-44
1 44909U 19096E   26247.12270283  .00000006  00000-0 -14150-4 0  9999
2 44909  82.5189 287.2592 0216719 320.0508  38.4816 12.79749119312444
SALSAT
1 46495U 20068K   26247.46102648  .00004504  00000-0  15402-3 0  9994
2 46495  97.8892 255.4274 0010305  34.0078 326.1820 15.30796995327483
CSS (TIANHE-1)
1 48274U 21035A   26247.85217593  .00011774  00000-0  14771-3 0  9990
2 48274  41.4676 198.3768 0002257 257.8869 102.1717 15.59580880305600
TeikyoSat 4
1 49396U 21102B   26247.32927444  .00000806  00000-0  53646-4 0  9995
2 49396  97.3641 273.7333 0012674  28.0107 332.1803 15.09744563264667
Z-Sat
1 49399U 21102E   26247.86489550  .00001081  00000-0  55018-4 0  9999
2 49399  97.3285 280.7756 0015526 335.0933  24.9550 15.18792203265534
KOSEN 1
1 49402U 21102H   26247.67684817  .00003944  00000-0  14763-3 0  9997
2 49402  97.3127 288.3169 0011523 287.9160  72.0823 15.27823766266151
HO-113
1 50466U 21131B   26247.88487497  .00000097  00000-0  43516-4 0  9994
2 50466  98.4968 339.8419 0003494 203.7271 156.3757 14.41417804246590
SNUGLITE 2
1 52899U 22065F   26247.35927713  .00000516  00000-0  10665-3 0  9999
2 52899  98.2315  32.1053 0008449 129.7158 230.4790 14.64470248222589
UmKA 1 (RS40S)
1 57172U 23091G   26247.81752345  .00002788  00000-0  12654-3 0  9999
2 57172  97.4974 306.2190 0012098 194.1422 165.9477 15.21586453176113
CubeBel-2 (EU11S)
1 57175U 23091K   26247.83993523  .00007190  00000-0  24325-3 0  9999
2 57175  97.4973 311.8372 0009327 183.2459 176.8723 15.30886506176486
RS-38S
1 57189U 23091Z   26247.82465338  .00010419  00000-0  27770-3 0  9996
2 57189  97.5019 319.0110 0007909 138.1536 222.0314 15.38328342176928
SONATE-2
1 59112U 24043Q   26247.39762554  .00037334  00000-0  38219-3 0  9999
2 59112  97.5610  43.0681 0005063 265.5553  94.5128 15.64903119140255
